TimeEDT,TemperatureF,Dew PointF,Humidity,Sea Level PressureIn,VisibilityMPH,Wind Direction,Wind SpeedMPH,Gust SpeedMPH,PrecipitationIn,Events,Conditions,WindDirDegrees,DateUTC
12:55 AM,72.3,70.9,95,29.99,10.0,West,5.8,-,N/A,,Mostly Cloudy,270,2012-10-08 04:55:00
1:55 AM,72.3,70.5,94,30.00,10.0,Calm,Calm,-,N/A,,Scattered Clouds,0,2012-10-08 05:55:00
2:55 AM,73.0,71.2,94,29.98,10.0,North,4.6,-,N/A,,Mostly Cloudy,360,2012-10-08 06:55:00
3:53 AM,71.6,69.8,94,29.97,10.0,NNE,8.1,-,N/A,,Overcast,20,2012-10-08 07:53:00
3:55 AM,71.6,69.3,92,29.97,10.0,North,6.9,-,N/A,,Overcast,10,2012-10-08 07:55:00
4:02 AM,71.6,69.8,94,29.98,10.0,North,8.1,-,N/A,,Overcast,10,2012-10-08 08:02:00
4:32 AM,69.8,68.0,94,29.99,10.0,NNE,9.2,-,N/A,,Overcast,30,2012-10-08 08:32:00
4:43 AM,69.8,66.2,88,29.99,10.0,NNE,9.2,-,N/A,,Overcast,20,2012-10-08 08:43:00
4:55 AM,68.9,65.7,89,29.99,10.0,NNE,10.4,-,N/A,,Overcast,20,2012-10-08 08:55:00
5:14 AM,68.0,64.4,88,30.00,10.0,NE,5.8,-,N/A,,Overcast,40,2012-10-08 09:14:00
5:55 AM,67.3,64.0,89,30.02,10.0,North,6.9,-,N/A,,Overcast,10,2012-10-08 09:55:00
6:21 AM,66.2,64.4,94,30.03,10.0,North,5.8,-,N/A,,Overcast,360,2012-10-08 10:21:00
6:52 AM,66.2,62.6,88,30.02,10.0,NE,8.1,-,N/A,,Overcast,50,2012-10-08 10:52:00
6:55 AM,66.2,62.6,88,30.02,10.0,NE,9.2,-,N/A,,Overcast,50,2012-10-08 10:55:00
7:55 AM,65.8,62.6,89,30.04,10.0,NE,6.9,-,N/A,,Overcast,40,2012-10-08 11:55:00
8:11 AM,66.2,62.6,88,30.04,10.0,ENE,8.1,-,N/A,,Overcast,60,2012-10-08 12:11:00
8:55 AM,66.6,63.9,91,30.06,10.0,NE,5.8,-,N/A,,Overcast,50,2012-10-08 12:55:00
9:55 AM,68.0,64.6,89,30.06,10.0,NE,8.1,-,N/A,,Overcast,50,2012-10-08 13:55:00
10:28 AM,69.8,64.4,83,30.06,10.0,ENE,8.1,-,N/A,,Overcast,70,2012-10-08 14:28:00
10:33 AM,69.8,64.4,83,30.06,10.0,East,8.1,-,N/A,,Overcast,80,2012-10-08 14:33:00
10:39 AM,69.8,66.2,88,30.05,10.0,NE,6.9,-,N/A,,Overcast,40,2012-10-08 14:39:00
10:55 AM,69.8,65.5,86,30.06,10.0,ENE,6.9,-,N/A,,Overcast,60,2012-10-08 14:55:00
11:55 AM,70.0,65.5,86,30.06,10.0,NNE,6.9,-,N/A,,Overcast,20,2012-10-08 15:55:00
12:06 PM,69.8,64.4,83,30.06,10.0,North,5.8,-,N/A,,Overcast,360,2012-10-08 16:06:00
12:55 PM,71.4,65.1,80,30.04,10.0,North,6.9,-,N/A,,Overcast,10,2012-10-08 16:55:00
1:55 PM,70.9,64.6,80,30.01,10.0,NNW,6.9,-,N/A,,Overcast,340,2012-10-08 17:55:00
2:55 PM,69.1,63.9,83,30.00,10.0,North,10.4,-,N/A,,Overcast,10,2012-10-08 18:55:00
3:03 PM,68.0,64.4,88,30.01,10.0,North,9.2,-,N/A,,Overcast,360,2012-10-08 19:03:00
3:48 PM,66.2,62.6,88,30.01,9.0,NNW,12.7,-,N/A,Rain,Light Rain,330,2012-10-08 19:48:00
3:55 PM,66.0,62.8,89,30.00,7.0,NNW,12.7,-,0.01,Rain,Light Rain,330,2012-10-08 19:55:00
4:11 PM,64.4,62.6,94,30.01,10.0,NNW,12.7,-,N/A,,Overcast,340,2012-10-08 20:11:00
4:31 PM,64.4,60.8,88,30.01,10.0,NNW,11.5,-,N/A,Rain,Light Rain,340,2012-10-08 20:31:00
4:55 PM,62.6,60.4,93,30.02,10.0,NNW,11.5,-,0.01,Rain,Light Rain,330,2012-10-08 20:55:00
5:16 PM,62.6,59.0,88,30.03,10.0,North,10.4,-,N/A,,Overcast,350,2012-10-08 21:16:00
5:25 PM,62.6,59.0,88,30.03,10.0,NNW,11.5,-,N/A,Rain,Light Rain,340,2012-10-08 21:25:00
5:45 PM,60.8,59.0,94,30.02,10.0,Variable,5.8,-,N/A,,Light Drizzle,0,2012-10-08 21:45:00
5:55 PM,61.3,59.0,92,30.03,10.0,North,5.8,-,0.00,,Light Drizzle,10,2012-10-08 21:55:00
5:58 PM,60.8,59.0,94,30.03,10.0,NNW,8.1,-,N/A,,Overcast,340,2012-10-08 21:58:00
6:06 PM,60.8,59.0,94,30.04,10.0,North,6.9,-,N/A,Rain,Light Rain,350,2012-10-08 22:06:00
6:09 PM,60.8,59.0,94,30.04,10.0,North,5.8,-,N/A,Rain,Light Rain,350,2012-10-08 22:09:00
6:16 PM,60.8,59.0,94,30.03,3.0,North,10.4,-,N/A,Rain,Heavy Rain,10,2012-10-08 22:16:00
6:20 PM,60.8,59.0,94,30.03,3.0,North,8.1,-,N/A,Rain,Light Rain,360,2012-10-08 22:20:00
6:31 PM,60.8,59.0,94,30.03,10.0,North,11.5,-,N/A,,Overcast,360,2012-10-08 22:31:00
6:38 PM,60.8,59.0,94,30.02,10.0,North,11.5,-,N/A,,Overcast,360,2012-10-08 22:38:00
6:55 PM,60.6,58.8,94,30.02,10.0,North,11.5,-,0.06,,Overcast,350,2012-10-08 22:55:00
6:59 PM,60.8,59.0,94,30.02,10.0,North,12.7,-,N/A,,Overcast,350,2012-10-08 22:59:00
7:05 PM,60.8,59.0,94,30.02,10.0,North,12.7,-,N/A,,Overcast,350,2012-10-08 23:05:00
7:20 PM,60.8,59.0,94,30.03,10.0,North,10.4,20.7,N/A,,Overcast,350,2012-10-08 23:20:00
7:29 PM,60.8,59.0,94,30.04,10.0,NNW,11.5,-,N/A,,Overcast,330,2012-10-08 23:29:00
7:46 PM,59.0,59.0,100,30.05,10.0,North,10.4,-,N/A,,Overcast,350,2012-10-08 23:46:00
7:55 PM,59.5,58.1,95,30.05,10.0,North,9.2,-,N/A,,Overcast,350,2012-10-08 23:55:00
8:01 PM,59.0,57.2,94,30.05,10.0,North,6.9,-,N/A,,Overcast,350,2012-10-09 00:01:00
8:55 PM,59.0,57.0,93,30.06,10.0,North,11.5,-,N/A,,Overcast,360,2012-10-09 00:55:00
8:58 PM,59.0,57.2,94,30.06,10.0,North,11.5,-,N/A,,Overcast,350,2012-10-09 00:58:00
9:06 PM,59.0,57.2,94,30.06,10.0,North,11.5,-,N/A,,Overcast,360,2012-10-09 01:06:00
9:32 PM,59.0,57.2,94,30.07,10.0,North,11.5,18.4,N/A,,Overcast,350,2012-10-09 01:32:00
9:41 PM,59.0,57.2,94,30.07,10.0,North,11.5,19.6,N/A,,Overcast,350,2012-10-09 01:41:00
9:55 PM,58.6,56.7,93,30.08,10.0,NNW,10.4,-,N/A,,Overcast,340,2012-10-09 01:55:00
10:11 PM,59.0,57.2,94,30.07,10.0,North,9.2,-,N/A,,Overcast,350,2012-10-09 02:11:00
10:48 PM,59.0,55.4,88,30.08,10.0,North,9.2,-,N/A,,Overcast,10,2012-10-09 02:48:00
10:55 PM,58.1,56.1,93,30.08,10.0,North,11.5,16.1,N/A,,Overcast,360,2012-10-09 02:55:00
11:08 PM,57.2,55.4,94,30.09,10.0,North,10.4,-,N/A,,Overcast,350,2012-10-09 03:08:00
11:10 PM,57.2,55.4,94,30.09,10.0,NNW,10.4,-,N/A,,Overcast,340,2012-10-09 03:10:00
11:55 PM,57.2,55.0,92,30.09,10.0,North,10.4,-,N/A,,Overcast,360,2012-10-09 03:55:00